Location: Unspecified
(0.0000°N, 0.0000°E)
Time: 03:15:39
(UTC+00:00)

Transit 2A - All Passes

Search period start: 29 August 2014 00:00
Search period end: 08 September 2014 00:00
Orbit: 602 x 961 km, 66.7° (Epoch: 26 August)

Date Brightness Start Highest point End Pass type
(mag) Time Alt. Az. Time Alt. Az. Time Alt. Az.
29 Aug - 02:52:26 10° NNW 02:57:59 70° ENE 03:04:03 10° SSE night (unlit)
29 Aug - 13:49:14 10° SE 13:51:00 12° ESE 13:52:44 10° E daylight
29 Aug - 15:29:39 10° SW 15:34:05 33° WNW 15:38:12 10° N daylight
30 Aug - 02:19:17 10° N 02:24:33 43° ENE 02:30:17 10° SE night (unlit)
30 Aug - 04:04:28 10° WNW 04:07:44 15° WSW 04:11:08 10° SSW night (unlit)
30 Aug - 14:55:46 10° SSW 15:00:41 60° WNW 15:05:09 10° N daylight
31 Aug - 01:46:30 10° NNE 01:51:09 27° ENE 01:56:08 10° SE night (unlit)
31 Aug - 03:29:36 10° WNW 03:34:11 25° WSW 03:39:03 10° SSW night (unlit)
31 Aug - 14:22:15 10° SSW 14:27:15 77° ESE 14:31:47 10° NNE daylight
01 Sep - 01:14:15 10° NNE 01:17:45 17° ENE 01:21:24 10° ESE night (unlit)
01 Sep - 02:55:24 10° NW 03:00:39 39° WSW 03:06:20 10° S night (unlit)
01 Sep - 13:49:02 10° S 13:53:46 42° ESE 13:58:06 10° NE daylight
02 Sep - 02:21:34 10° NNW 02:27:09 62° WSW 02:33:15 10° S night (unlit)
02 Sep - 13:16:13 10° SSE 13:20:15 25° ESE 13:24:01 10° ENE daylight
02 Sep - 15:00:18 10° WSW 15:03:07 16° WNW 15:05:49 10° NW daylight
03 Sep - 01:48:02 10° NNW 01:53:41 84° ENE 01:59:52 10° SSE night (unlit)
03 Sep - 12:44:04 10° SE 12:46:43 14° ESE 12:49:14 10° E daylight
03 Sep - 14:25:38 10° SW 14:29:43 27° WNW 14:33:32 10° NNW daylight
04 Sep - 01:14:47 10° N 01:20:15 52° ENE 01:26:12 10° SSE night (unlit)
04 Sep - 03:01:01 10° W 03:03:29 13° WSW 03:06:01 10° SW night (unlit)
04 Sep - 13:51:36 10° SW 13:56:19 47° WNW 14:00:39 10° N daylight
05 Sep - 00:41:50 10° N 00:46:50 33° ENE 00:52:13 10° SE night (unlit)
05 Sep - 02:25:41 10° WNW 02:29:55 21° WSW 02:34:23 10° SSW night (unlit)
05 Sep - 13:17:57 10° SSW 13:22:53 86° WNW 13:27:24 10° NNE daylight
06 Sep - 00:09:19 10° NNE 00:13:26 20° ENE 00:17:46 10° ESE night (unlit)
06 Sep - 01:51:17 10° NW 01:56:23 33° WSW 02:01:51 10° S night (unlit)
06 Sep - 12:44:37 10° S 12:49:26 53° ESE 12:53:49 10° NE daylight
06 Sep - 23:37:47 10° NE 23:40:00 12° ENE 23:42:17 10° E night (unlit)
07 Sep - 01:17:19 10° NW 01:22:52 52° WSW 01:28:53 10° S night (unlit)
07 Sep - 12:11:38 10° S 12:15:55 30° ESE 12:19:54 10° NE daylight
07 Sep - 13:56:54 10° W 13:58:44 12° WNW 14:00:32 10° NW daylight
